EW1109 Weather Reports


time (UTC)temp
C
wind
direction
speed
KPH
gust
KPH
rain 1hr
cm
rain 24hr
cm
rain mn
cm
humidity
%
barometer
mb
20260507221510 6 197 0.0 9.7 0.00 0.00 0.00 51 1011.2
20260507220006 7 259 3.2 14.5 0.00 0.00 0.00 50 1011.3
20260507214502 6 252 1.6 11.3 0.00 0.00 0.00 50 1011.3
20260507213106 6 227 0.0 11.3 0.00 0.00 0.00 49 1011.3
20260507211557 6 192 1.6 14.5 0.00 0.00 0.00 48 1011.3
20260507210049 5 180 0.0 11.3 0.00 0.00 0.00 45 1011.4
20260507204552 5 255 1.6 12.9 0.00 0.00 0.00 40 1011.5
20260507203041 5 251 0.0 11.3 0.00 0.00 0.00 32 1011.6
20260507201530 5 144 0.0 12.9 0.00 0.00 0.00 48 1011.7
20260507200019 6 224 1.6 16.1 0.00 0.00 0.00 51 1011.6
20260507194515 6 237 3.2 17.7 0.00 0.00 0.00 51 1011.6
20260507193010 6 234 3.2 12.9 0.00 0.00 0.00 50 1011.7
20260507191506 7 238 4.8 19.3 0.00 0.00 0.00 49 1011.8
20260507190006 7 227 4.8 19.3 0.00 0.00 0.00 49 1011.8
20260507184606 7 173 4.8 14.5 0.00 0.00 0.00 49 1011.7
20260507183054 7 242 4.8 17.7 0.00 0.00 0.00 48 1011.7
20260507181540 7 224 1.6 11.3 0.00 0.00 0.00 45 1011.9
20260507180033 6 232 1.6 11.3 0.00 0.00 0.00 49 1012.0
20260507174533 6 261 4.8 16.1 0.00 0.00 0.00 49 1012.1
20260507173024 6 250 3.2 19.3 0.00 0.00 0.00 47 1012.3
20260507171620 6 225 4.8 14.5 0.00 0.00 0.00 46 1012.3
20260507170015 6 244 4.8 17.7 0.00 0.00 0.00 47 1012.5
20260507164511 5 253 3.2 12.9 0.00 0.00 0.00 37 1012.7
20260507163007 5 169 4.8 14.5 0.00 0.00 0.00 11 1012.9
20260507161549 5 212 3.2 11.3 0.00 0.00 0.00 1 1013.1
20260507160048 5 251 3.2 11.3 0.00 0.00 0.00 100 1013.2
20260507154540 5 198 1.6 11.3 0.00 0.00 0.00 100 1013.3
20260507153036 4 214 3.2 11.3 0.00 0.00 0.00 100 1013.5
20260507151531 4 211 3.2 11.3 0.00 0.00 0.00 100 1013.4
20260507150026 4 247 3.2 11.3 0.00 0.00 0.00 100 1013.3
20260507144523 4 217 0.0 8.0 0.00 0.00 0.00 100 1013.2
20260507143032 4 263 0.0 9.7 0.00 0.00 0.00 100 1013.3
20260507141501 4 253 0.0 9.7 0.00 0.00 0.00 100 1013.2
20260507140056 4 251 0.0 8.0 0.00 0.00 0.00 100 1013.2
20260507134555 4 215 0.0 11.3 0.00 0.00 0.00 100 1013.3
20260507133049 5 236 0.0 9.7 0.00 0.00 0.00 100 1013.2
20260507131552 5 213 0.0 8.0 0.00 0.00 0.00 100 1013.1
20260507130043 5 215 0.0 8.0 0.00 0.00 0.00 100 1013.1
20260507124537 4 199 0.0 4.8 0.00 0.00 0.00 100 1013.1
20260507123031 3 297 0.0 0.0 0.00 0.00 0.00 100 1013.0
20260507121509 2 298 0.0 0.0 0.00 0.00 0.00 100 1013.0
20260507120005 2 298 0.0 0.0 0.00 0.00 0.00 100 1012.9
20260507114544 1 298 0.0 0.0 0.00 0.00 0.00 100 1012.8
20260507113039 1 298 0.0 0.0 0.00 0.00 0.00 100 1012.6
20260507111523 0 298 0.0 0.0 0.00 0.00 0.00 100 1012.5
20260507110021 0 298 0.0 0.0 0.00 0.00 0.00 100 1012.5
20260507104514 0 298 0.0 0.0 0.00 0.00 0.00 100 1012.5
20260507103011 0 298 0.0 0.0 0.00 0.00 0.00 100 1012.4
20260507101507 0 298 0.0 0.0 0.00 0.00 0.00 100 1012.5
20260507100001 0 298 0.0 0.0 0.00 0.00 0.00 100 1012.6
20260507094557 -1 298 0.0 0.0 0.00 0.00 0.00 100 1012.6
20260507093053 -1 298 0.0 0.0 0.00 0.00 0.00 100 1012.7
20260507091535 -1 298 0.0 0.0 0.00 0.00 0.00 100 1012.8
20260507090026 0 298 0.0 0.0 0.00 0.00 0.00 100 1012.9
20260507084503 0 298 0.0 0.0 0.00 0.00 0.00 100 1013.0
20260507083059 0 298 0.0 0.0 0.00 0.00 0.00 100 1013.0
20260507081536 0 298 0.0 0.0 0.00 0.00 0.00 100 1013.2
20260507080032 0 298 0.0 0.0 0.00 0.00 0.00 100 1013.2
20260507074516 0 298 0.0 0.0 0.00 0.00 0.00 100 1013.2
20260507073013 0 298 0.0 0.0 0.00 0.00 0.00 100 1013.3
20260507071506 0 298 0.0 0.0 0.00 0.00 0.00 100 1013.3
20260507070004 0 298 0.0 0.0 0.00 0.00 0.00 100 1013.5
20260507064634 0 298 0.0 0.0 0.00 0.00 0.00 100 1013.7
20260507063105 0 298 0.0 0.0 0.00 0.00 0.00 100 1013.8
20260507061550 0 298 0.0 0.0 0.00 0.00 0.00 100 1014.0
20260507060107 0 298 0.0 0.0 0.00 0.00 0.00 100 1014.0
20260507054547 0 298 0.0 0.0 0.00 0.00 0.00 100 1014.2
20260507053019 0 298 0.0 0.0 0.00 0.00 0.00 100 1014.2
20260507051515 0 298 0.0 0.0 0.00 0.00 0.00 100 1014.1
20260507050059 0 298 0.0 0.0 0.00 0.00 0.00 100 1014.2
20260507044558 1 298 0.0 0.0 0.00 0.00 0.00 100 1014.1
20260507043052 1 298 0.0 0.0 0.00 0.00 0.00 100 1014.1
20260507041547 1 298 0.0 0.0 0.00 0.00 0.00 100 1014.3
20260507040041 1 298 0.0 0.0 0.00 0.00 0.00 100 1014.2
20260507034538 1 298 0.0 0.0 0.00 0.00 0.00 100 1014.3
20260507033034 1 298 0.0 0.0 0.00 0.00 0.00 100 1014.4
20260507031528 1 298 0.0 0.0 0.00 0.00 0.00 100 1014.5
20260507030021 1 298 0.0 0.0 0.00 0.00 0.00 100 1014.5
20260507024513 1 298 0.0 0.0 0.00 0.00 0.00 100 1014.4
20260507023003 2 298 0.0 0.0 0.00 0.00 0.00 11 1014.5
20260507021558 3 286 0.0 0.0 0.00 0.00 0.00 100 1014.4
20260507020115 3 286 0.0 0.0 0.00 0.00 0.00 100 1014.3
20260507014557 3 286 0.0 0.0 0.00 0.00 0.00 100 1014.2
20260507013045 3 286 0.0 0.0 0.00 0.00 0.00 100 1014.1
20260507011542 3 282 0.0 0.0 0.00 0.00 0.00 8 1014.1
20260507010034 3 283 0.0 0.0 0.00 0.00 0.00 17 1013.9
20260507004521 3 281 0.0 6.4 0.00 0.00 0.00 27 1013.9
20260507003016 3 246 0.0 0.0 0.00 0.00 0.00 47 1013.7
20260507001516 3 161 0.0 6.4 0.00 0.00 0.00 53 1013.8
20260507000008 3 229 0.0 1.6 0.00 0.00 0.00 54 1013.5
20260506234503 3 211 0.0 8.0 0.00 0.00 0.00 54 1013.7
20260506233100 4 234 0.0 9.7 0.00 0.00 0.00 54 1013.6
20260506233000 4 232 0.0 9.7 0.00 0.00 0.00 54 1013.5
20260506231609 4 175 3.2 11.3 0.00 0.00 0.00 54 1013.6
20260506230053 4 242 0.0 8.0 0.00 0.00 0.00 54 1013.6
20260506224538 4 235 1.6 11.3 0.00 0.00 0.00 55 1013.8
20260506223028 4 227 0.0 11.3 0.00 0.00 0.00 55 1013.8